Home   Weather   Saint Helier   Past weeks

Flag for Jersey Past Weather in Saint Helier, Jersey — Yesterday and Last 2 Weeks

Now
45 °F

Clear.


Feels Like: 38 °F
Forecast: 42 / 49 °F
Wind: 13 mph from Southwest

Location: Jersey Airport

Current Time: Feb 25, 2017 at 5:02:38 am

Latest Report: Feb 25, 2017 at 4:20 am


Visibility: 10 mi

Pressure: 30.09 "Hg

Humidity: 81%

Dew Point: 39 °F

Location of Saint HelierLocation

Past Weather in Saint Helier — Graph

°F

Saint Helier Temperature Yesterday

Maximum temperature yesterday: 48 °F (at 10:20 am)
Minimum temperature yesterday: 43 °F (at 4:20 am)
Average temperature yesterday: 45 °F

High & Low Weather Summary for the Past Weeks

 TemperatureHumidityPressure
High54 °F (Feb 13, 3:20 pm)100% (Feb 11, 8:20 pm)30.48 "Hg (Feb 11, 8:20 pm)
Low34 °F (Feb 11, 7:20 am)60% (Feb 11, 3:50 am)29.62 "Hg (Feb 23, 8:20 am)
Average45 °F89%30.14 "Hg
* Reported Feb 10 3:50 am — Feb 25 3:50 am, Saint Helier, Weather by CustomWeather, © 2017

Note: Actual official high and low records may vary slightly from our data, if they occured in-between our weather recording intervals... More about our weather records

Advertising

Saint Helier Weather History for the Previous 24 Hours

Scroll right to see more
 ConditionsComfort  
Time TempWeatherWind HumidityBarometerVisibility
3:50 am
Sat, Feb 25
45 °FClear.14 mph81%30.09 "Hg10 mi
9:20 pm
Fri, Feb 24
43 °FPassing clouds.7 mph87%30.15 "HgN/A
8:50 pm43 °FPassing clouds.5 mph87%30.18 "HgN/A
8:20 pm45 °FPassing clouds.5 mph81%30.15 "HgN/A
7:50 pm43 °FPassing clouds.6 mph81%30.15 "HgN/A
7:20 pm43 °FPassing clouds.8 mph87%30.15 "HgN/A
6:50 pm43 °FPassing clouds.5 mph87%30.15 "HgN/A
6:20 pm43 °FPassing clouds.6 mph87%30.15 "HgN/A
5:50 pm43 °FPassing clouds.7 mph87%30.15 "HgN/A
5:20 pm45 °FPassing clouds.8 mph81%30.15 "HgN/A
4:50 pm46 °FPassing clouds.9 mph76%30.15 "HgN/A
4:20 pm46 °FPassing clouds.7 mph76%30.12 "HgN/A
3:50 pm46 °FScattered clouds.6 mph71%30.12 "HgN/A
3:20 pm46 °FScattered showers. Scattered clouds.6 mph71%30.12 "HgN/A
2:50 pm46 °FSprinkles. Scattered clouds.6 mph76%30.12 "HgN/A
2:20 pm46 °FScattered clouds.13 mph71%30.12 "HgN/A
1:50 pm48 °FPassing clouds.14 mph66%30.12 "HgN/A
1:20 pm48 °FPassing clouds.12 mph66%30.12 "HgN/A
12:50 pm48 °FPassing clouds.13 mph62%30.12 "HgN/A
12:20 pm46 °FPassing clouds.13 mph66%30.12 "HgN/A
11:50 am48 °FPassing clouds.17 mph66%30.12 "HgN/A
11:20 am48 °FPassing clouds.16 mph62%30.12 "HgN/A
10:50 am46 °FScattered showers. Scattered clouds.12 mph71%30.12 "HgN/A
10:20 am48 °FPassing clouds.18 mph66%30.12 "HgN/A
9:50 am46 °FPassing clouds.13 mph66%30.09 "HgN/A
9:20 am46 °FPassing clouds.15 mph66%30.09 "HgN/A
8:50 am45 °FPassing clouds.14 mph66%30.09 "HgN/A
8:20 am45 °FPassing clouds.12 mph66%30.09 "HgN/A
7:50 am45 °FPassing clouds.18 mph66%30.07 "HgN/A
7:20 am45 °FScattered clouds.13 mph71%30.07 "HgN/A
6:50 am43 °FPassing clouds.13 mph71%30.04 "HgN/A
6:20 am43 °FPassing clouds.15 mph71%30.04 "HgN/A
5:50 am43 °FPassing clouds.15 mph71%30.04 "HgN/A
5:20 am43 °FPassing clouds.15 mph71%30.01 "HgN/A
Weather by CustomWeather, © 2017

See weather overviewHow to use our weather pages